Volver al catálogo

STARLINK-37308

ActivoComunicacionesVLEO
NORAD 68952·PAYLOAD·🇺🇸 United States

Lanzado May 1, 2026 desde Cape Canaveral Space Force Station

Loading…

Próximos Pases (próximas 24 horas)

TLE

ActualizadoSource: CelesTrak SupGP

Época: Sep 14, 2026, 14:52 UTC

1 68952C 26099B   26257.61993056  .00006086  00000+0  17974-3 0  2574
2 68952  53.1573 103.5375 0001261 101.4902  64.7078 15.34401951    13

Sigue STARLINK-37308 en tiempo real con AllMySat

Download on the App Store